Regional Weather Roundup
Issued by NWS

Home | Current Version | Previous Version | Text Only | Print | Product List | Glossary On
Versions: 1 2 3 4 5 6 7 8 9 10 11 12 13 14 15 16 17 18 19 20 21 22 23 24 25 26 27 28 29 30 31 32 33 34 35 36 37 38 39 40 41 42 43 44 45 46 47 48 49 50
000
ASUS43 KDTX 292001
RWRMI
MICHIGAN HOURLY REGIONAL WEATHER ROUNDUP
NATIONAL WEATHER SERVICE DETROIT/PONTIAC MI
300 PM EST THU JAN 29 2015

NOTE: "FAIR" INDICATES FEW OR NO CLOUDS BELOW 12,000 FEET WITH NO
SIGNIFICANT WEATHER AND/OR OBSTRUCTION TO VISIBILITY.

MIZ047>049-052>055-059>063-066>070-074>076-081>083-292100-
SOUTHEAST LOWER MICHIGAN

CITY           SKY/WX    TMP DP  RH WIND       PRES   REMARKS
ADRIAN         LGT SNOW  34  29  82 NW18G24   29.76R WCI  23
ALMA           LGT SNOW  32  28  87 NW8       29.78R WCI  25
ANN ARBOR      SNOW      32  30  92 NW13G20   29.74R VSB 1/2 WCI  22
BAD AXE        LGT SNOW  28  26  93 NW10      29.73R WCI  18
CARO           LGT SNOW  29  26  89 NW8       29.74R VSB 1   WCI  21
DETROIT CITY   LGT SNOW  36  27  69 W8        29.72R WCI  30
DETROIT        LGT SNOW  34  29  82 W9        29.73R WCI  27
FLINT          LGT SNOW  31  28  89 NW10      29.75R VSB 1   WCI  22
GROSSE ILE     FLURRIES  36  30  80 W9        29.71R WCI  29
HILLSDALE      LGT SNOW  33  32  94 NW17G23   29.76R WCI  22
HOWELL         LGT SNOW  32  30  92 NW14      29.74R VSB 1   WCI  22

CITY           SKY/WX    TMP DP  RH WIND       PRES   REMARKS
JACKSON        LGT SNOW  32  29  88 NW10G20   29.76R FOG     WCI  24
LAMBERTVILLE   CLOUDY    36  32  87 W6        29.75R WCI  31
LANSING        LGT SNOW  31  28  89 NW12      29.79R FOG     WCI  22
LAPEER         LGT SNOW  30  28  90 NW9       29.73R VSB 1   WCI  22
MASON          CLOUDY    31  28  86 NW10G18   29.76R WCI  22
MONROE         CLOUDY    34  32  93 W6        29.72R WCI  29
MT. CLEMENS    LGT SNOW  32  28  86 NW10      29.70R VSB 3/4 WCI  24
PONTIAC        LGT SNOW  30  28  92 NW10      29.71R VSB 3/4 WCI  21
PORT HOPE        N/A     28  24  85 NW13      29.71R WCI  17
PORT HURON     FLURRIES  30  27  86 W5        29.71S WCI  25
TRI CITIES     LGT SNOW  32  26  78 NW13      29.76R WCI  22
TROY           LGT SNOW  34  30  86 W9        29.75R VSB 3/4 WCI  26
SAGINAW HB     LGT SNOW  32  28  86 NW14      29.76R WCI  22
$$
MIZ043>046-050>051-056>058-064>065-071>073-077>080-292100-
SOUTHWEST LOWER MICHIGAN

CITY           SKY/WX    TMP DP  RH WIND       PRES   REMARKS
BATTLE CREEK   LGT SNOW  33  28  81 NW13      29.81R WCI  24
BENTON HARBOR  CLOUDY    33  29  85 NW10G21   29.90R FOG     WCI  25
BIG RAPIDS     CLOUDY    31  29  92 NW12G20   29.80R WCI  22
COLDWATER      LGT SNOW  33  30  91 NW12G17   29.79R WCI  24
FREMONT        CLOUDY    32  27  83 N15G28    29.84R WCI  22
HOLLAND        CLOUDY    34  28  79 NW13G21   29.87R WCI  25
GRAND RAPIDS   CLOUDY    32  27  81 NW14      29.83R HAZE    WCI  22
IONIA          CLOUDY    32  29  88 NW9       29.79R WCI  25
KALAMAZOO      LGT RAIN  33  28  81 NW13      29.83R WCI  24
LUDINGTON      CLOUDY    36  28  74 N15G23    29.88R WCI  26
MARSHALL       LGT SNOW  32  29  91 NW8       29.79R WCI  24
MOUNT PLEASANT CLOUDY    32  27  80 NW10G17   29.77R WCI  24
MUSKEGON       CLOUDY    34  26  72 NW22G31   29.87R WCI  22
SOUTH HAVEN    CLOUDY    34  29  82 N15G25    29.88R WCI  25
$$
MIZ016>042-292100-
NORTHERN LOWER MICHIGAN

CITY           SKY/WX    TMP DP  RH WIND       PRES   REMARKS
ALPENA         CLOUDY    29  24  82 VRB6      29.74S WCI  23
BEAVER ISLAND  CLOUDY    28  25  88 NW15G22   29.84R WCI  17
BELLAIRE       CLOUDY    32  25  74 NW16G24   29.82R WCI  21
CADILLAC       MIX PCPN  30  27  86 NW18G28   29.77R WCI  18
CHARLEVOIX     CLOUDY    31  26  83 NW23G30   29.84R WCI  17
FRANKFORT      CLOUDY    32  26  80 N10G20    29.87R WCI  24
GAYLORD        FRZ RAIN  28  27  96 NW9G17    29.74R FOG     WCI  19
GRAYLING       CLOUDY    28  27  96 NW12G17   29.76R FOG     WCI  18
HARBOR SPRINGS CLOUDY    31  27  86 NW18G24   29.79R WCI  19
HOUGHTON LAKE  CLOUDY    29  24  82 N9        29.75R HAZE    WCI  20
MANISTEE       CLOUDY    34  25  69 N16G22    29.87R WCI  23
OSCODA         CLOUDY    31  26  82 N9        29.73R WCI  22
PELLSTON       CLOUDY    30  27  88 NW25G31   29.78R WCI  16
ROGERS CITY    CLOUDY    30  27  89 NW8       29.75S WCI  22
TRAVERSE CITY  CLOUDY    33  24  69 N17G26    29.82R WCI  22
$$
MIZ007>008-015-292100-
EASTERN UPPER MICHIGAN

CITY           SKY/WX    TMP DP  RH WIND       PRES   REMARKS
KINROSS        CLOUDY    28  28 100 NW21G28   29.73F WCI  15
MACKINAC ISLAN CLOUDY    30  30  99 W12       29.76R FOG     WCI  21
NEWBERRY       CLOUDY    26  24  93 NW10G18   29.81R FOG     WCI  16
S. S. MARIE    CLOUDY    28  25  88 W7        29.74S FOG     WCI  21
MUNISING         N/A     23  17  78 N29G39    29.93R WCI   6
$$
MIZ004>006-011>014-085-292100-
CENTRAL UPPER MICHIGAN

CITY           SKY/WX    TMP DP  RH WIND       PRES   REMARKS
MANISTIQUE     LGT SNOW  26  22  87 NW20G30   29.86R WCI  12
ESCANABA       CLOUDY    30  21  69 N9G20     29.91R WCI  22
MENOMINEE      CLOUDY    34  23  64 N18G24    29.90R WCI  23
SAWYER-GWINN   LGT SNOW  23  19  86 N21G29    29.91R VSB 1   WCI   8
$$
MIZ001>003-009>011-084-292100-
WESTERN UPPER MICHIGAN

CITY           SKY/WX    TMP DP  RH WIND       PRES   REMARKS
IRON MOUNTAIN  CLOUDY    27  19  72 NW31G39   29.92R WCI  10
HOUGHTON       CLOUDY    18  10  71 NW22G31   30.04R WCI   1
COPPER HARBOR    N/A     19  14  81 N30G40    30.04R WCI   0
IRONWOOD       CLOUDY    23  16  74 NW17G33   30.08R WCI   9
$$

ABBREVIATIONS USED IN REMARKS
   TC - TEMPERATURE IN CELSIUS
  WCI - WIND CHILL INDEX
   HX - HEAT INDEX
  VSB - VISIBILITY




USA.gov is the U.S. government's official web portal to all federal, state and local government web resources and services.